Skip Page Navigation
NASA JPL Caltech
NASA Logo - Jet Propulsion Laboratory + View the NASA Portal
+ Center for Near-Earth Object Studies
JPL Home Earth Solar System Stars & Galaxies Technology
JPL Solar System Dynamics
BODIES ORBITS EPHEMERIDES TOOLS PHYSICAL DATA DISCOVERY FAQ SITE MAP
IMPORTANT: The SSD Announcement email list is now available. Major changes are coming in the near future, including possible hostname and/or URL changes. To be notified of such changes, subscribe to this email list.

Please visit this page for more details.


JPL Small-Body Database Browser
Search: [ help ]  
37151 (2000 VF55)
Classification: Main-belt Asteroid          SPK-ID: 2037151
Ephemeris | Orbit Diagram | Orbital Elements | Mission Design | Physical Parameters | Discovery Circumstances | Close-Approach Data ]

[ show orbit diagram ]
Orbital Elements at Epoch 2459000.5 (2020-May-31.0) TDB
Reference: JPL 21 (heliocentric ecliptic J2000)
 Element Value Uncertainty (1-sigma)   Units 
e .1889549618616628 4.284e-08  
a 3.011640013264909 2.3563e-08 au
q 2.442575689417381 1.3667e-07 au
i 7.643206879718088 3.8907e-06 deg
node 252.8126921213558 3.9795e-05 deg
peri 60.56422432462383 4.1597e-05 deg
M 349.2624559142043 1.4186e-05 deg
tp 2459057.438428178802
(2020-Jul-26.93842818)
7.5468e-05 TDB
period 1908.987193029044
5.23
2.2404e-05
6.134e-08
d
yr
n .1885816737349494 2.2132e-09 deg/d
Q 3.580704337112438 2.8015e-08 au
  Orbit Determination Parameters
   # obs. used (total)      981  
   data-arc span      7765 days (21.26 yr)  
   first obs. used      1998-03-31  
   last obs. used      2019-07-04  
   planetary ephem.      DE431  
   SB-pert. ephem.      SB431-N16  
   condition code      0  
   norm. resid. RMS      .48754  
   source      ORB  
   producer      Otto Matic  
   solution date      2020-Feb-23 04:25:36  

Additional Information
 Earth MOID = 1.43964 au 
 Jupiter MOID = 1.74592 au 
 T_jup = 3.209 
[ show covariance matrix ]

Ephemeris | Orbit Diagram | Orbital Elements | Mission Design | Physical Parameters | Discovery Circumstances | Close-Approach Data ]

Physical Parameter Table
Parameter Symbol Value Units Sigma Reference Notes
absolute magnitude H 14.1   n/a MPO436027  
diameter diameter 7.676 km 0.059 urn:nasa:pds:neowise_diameters_albedos::2.0[mainbelt] (http://adsabs.harvard.edu/abs/2011ApJ...741...68M)  
geometric albedo albedo 0.083   0.009 urn:nasa:pds:neowise_diameters_albedos::2.0[mainbelt] (http://adsabs.harvard.edu/abs/2011ApJ...741...68M)  

37151 (2000 VF55)          Discovered 2000-Nov-03 by LINEAR at Socorro
Reference: 20020227/Numbers.arcLast Updated: 2004-04-19

[ show close-approach data ]
Alternate Designations
 2000 VF55 = 1998 FH114 
Ephemeris | Orbit Diagram | Orbital Elements | Mission Design | Physical Parameters | Discovery Circumstances | Close-Approach Data ]
ABOUT SSD CREDITS/AWARDS PRIVACY/COPYRIGHT GLOSSARY LINKS
FirstGov 2020-Apr-10 07:27 UT
(server date/time)  
NASA Home Page
Site Manager:   Ryan S. Park
Webmaster  Alan B. Chamberlin